When you browse on this site, cookies collect data to enhance your experience and personalize the content and advertising you see.
Visit our Privacy Policy to learn more. By continuing to use the site, you agree to this use of cookies and data.
  • In Germany
  • List of Countries
  • For 7 days
  • Water Temperature
  • Satellite Maps
  • Weather Map
  • Weather Widgets
  • user-avatar
    Login

    Hourly Weather Hobart

    Today, 13 December, Thursday

    Time Temperature Precipitation Wind Pressure Humidity
    00:00 +14°C° 0 mm 5 mps 740 mmHg 83%
    01:00 +13°C° 0 mm 5 mps 740 mmHg 86%
    02:00 +13°C° 0 mm 5 mps 740 mmHg 88%
    03:00 +13°C° 0 mm 5 mps 740 mmHg 90%
    04:00 +12°C° 0 mm 4 mps 739 mmHg 95%
    05:00 +13°C° 0 mm 4 mps 739 mmHg 87%
    06:00 +15°C° 0 mm 5 mps 739 mmHg 80%
    07:00 +17°C° 0 mm 5 mps 740 mmHg 72%
    08:00 +20°C° 0 mm 5 mps 740 mmHg 67%
    09:00 +22°C° 0 mm 6 mps 740 mmHg 61%
    10:00 +23°C° 0 mm 5 mps 740 mmHg 57%
    11:00 +23°C° 0 mm 5 mps 740 mmHg 57%
    12:00 +23°C° 0 mm 6 mps 740 mmHg 58%
    13:00 +24°C° 0 mm 6 mps 740 mmHg 58%
    14:00 +23°C° 0 mm 6 mps 741 mmHg 60%
    15:00 +23°C° 0 mm 5 mps 741 mmHg 62%
    16:00 +22°C° 0 mm 5 mps 741 mmHg 63%
    17:00 +21°C° 0 mm 5 mps 741 mmHg 69%
    18:00 +20°C° 0 mm 4 mps 742 mmHg 74%
    19:00 +19°C° 0 mm 4 mps 742 mmHg 79%
    20:00 +18°C° 0 mm 3 mps 743 mmHg 85%
    21:00 +17°C° 0 mm 3 mps 743 mmHg 90%
    22:00 +16°C° 0 mm 3 mps 744 mmHg 96%
    23:00 +16°C° 0 mm 3 mps 744 mmHg 96%

    Tomorrow, 14 December, Friday

    Time Temperature Precipitation Wind Pressure Humidity
    00:00 +16°C° 0 mm 2 mps 745 mmHg 96%
    01:00 +15°C° 0 mm 2 mps 745 mmHg 96%
    02:00 +15°C° 0 mm 2 mps 745 mmHg 96%
    03:00 +15°C° 0 mm 2 mps 745 mmHg 96%
    04:00 +15°C° 0 mm 2 mps 745 mmHg 96%
    05:00 +16°C° 0 mm 3 mps 746 mmHg 91%
    06:00 +16°C° 0 mm 3 mps 746 mmHg 86%
    07:00 +17°C° 0 mm 3 mps 747 mmHg 81%
    08:00 +19°C° 0 mm 3 mps 747 mmHg 72%
    09:00 +21°C° 0 mm 3 mps 747 mmHg 62%
    10:00 +22°C° 0 mm 4 mps 748 mmHg 52%
    11:00 +23°C° 0 mm 4 mps 748 mmHg 48%
    12:00 +25°C° 0 mm 4 mps 748 mmHg 45%
    13:00 +26°C° 0 mm 5 mps 748 mmHg 42%
    14:00 +26°C° 0 mm 5 mps 748 mmHg 45%
    15:00 +25°C° 0 mm 5 mps 748 mmHg 48%
    16:00 +25°C° 0 mm 5 mps 748 mmHg 51%
    17:00 +22°C° 0 mm 5 mps 748 mmHg 59%
    18:00 +20°C° 0 mm 4 mps 748 mmHg 67%
    19:00 +18°C° 0 mm 4 mps 749 mmHg 76%
    20:00 +17°C° 0 mm 4 mps 749 mmHg 81%
    21:00 +15°C° 0 mm 4 mps 749 mmHg 86%
    22:00 +14°C° 0 mm 3 mps 750 mmHg 91%
    23:00 +14°C° 0 mm 3 mps 750 mmHg 92%

    Day after tomorrow, 15 December, Saturday

    Time Temperature Precipitation Wind Pressure Humidity
    00:00 +14°C° 0 mm 3 mps 750 mmHg 92%
    01:00 +14°C° 0 mm 3 mps 750 mmHg 93%
    02:00 +14°C° 0 mm 3 mps 750 mmHg 93%
    03:00 +14°C° 0 mm 3 mps 749 mmHg 93%
    04:00 +13°C° 0 mm 3 mps 749 mmHg 94%
    05:00 +14°C° 0 mm 3 mps 749 mmHg 90%
    06:00 +16°C° 0 mm 3 mps 750 mmHg 86%
    07:00 +17°C° 0 mm 3 mps 750 mmHg 82%
    08:00 +18°C° 0 mm 4 mps 750 mmHg 76%
    09:00 +19°C° 0 mm 4 mps 749 mmHg 70%
    10:00 +21°C° 0 mm 4 mps 749 mmHg 64%
    11:00 +21°C° 0 mm 5 mps 749 mmHg 66%
    12:00 +21°C° 0 mm 5 mps 749 mmHg 69%
    13:00 +21°C° 0 mm 5 mps 748 mmHg 71%
    14:00 +21°C° 0 mm 5 mps 748 mmHg 74%
    15:00 +20°C° 0 mm 5 mps 747 mmHg 77%
    16:00 +20°C° 0 mm 4 mps 747 mmHg 80%
    17:00 +19°C° 0.1 mm 4 mps 747 mmHg 84%
    18:00 +19°C° 0.1 mm 4 mps 747 mmHg 89%
    19:00 +18°C° 0.1 mm 4 mps 747 mmHg 94%
    20:00 +18°C° 0.2 mm 4 mps 747 mmHg 95%
    21:00 +18°C° 0.2 mm 4 mps 746 mmHg 96%
    22:00 +18°C° 0.2 mm 4 mps 746 mmHg 96%
    23:00 +18°C° 0.2 mm 4 mps 746 mmHg 96%

    16 December, Sunday

    Time Temperature Precipitation Wind Pressure Humidity
    00:00 +17°C° 0.2 mm 5 mps 745 mmHg 97%
    01:00 +17°C° 0.2 mm 5 mps 745 mmHg 97%
    02:00 +17°C° 0.8 mm 5 mps 744 mmHg 97%
    03:00 +17°C° 0.8 mm 5 mps 744 mmHg 97%
    04:00 +17°C° 0.8 mm 5 mps 743 mmHg 97%
    05:00 +17°C° 1.8 mm 5 mps 743 mmHg 97%
    06:00 +17°C° 1.8 mm 5 mps 742 mmHg 97%
    07:00 +17°C° 1.8 mm 5 mps 742 mmHg 97%
    08:00 +19°C° 0.3 mm 5 mps 742 mmHg 95%
    09:00 +20°C° 0.3 mm 5 mps 741 mmHg 93%
    10:00 +21°C° 0.3 mm 5 mps 741 mmHg 91%
    11:00 +22°C° 0.1 mm 5 mps 740 mmHg 84%
    12:00 +23°C° 0.1 mm 5 mps 740 mmHg 77%
    13:00 +26°C° 0.1 mm 4 mps 739 mmHg 70%
    14:00 +26°C° 0.3 mm 4 mps 739 mmHg 66%
    15:00 +27°C° 0.3 mm 4 mps 738 mmHg 61%
    16:00 +27°C° 0.3 mm 4 mps 738 mmHg 57%
    17:00 +26°C° 0 mm 4 mps 738 mmHg 57%
    18:00 +25°C° 0 mm 4 mps 738 mmHg 57%
    19:00 +24°C° 0 mm 3 mps 738 mmHg 57%
    20:00 +21°C° 0 mm 3 mps 738 mmHg 65%
    21:00 +19°C° 0 mm 3 mps 738 mmHg 72%
    22:00 +17°C° 0 mm 3 mps 738 mmHg 79%
    23:00 +17°C° 0 mm 3 mps 738 mmHg 82%

    17 December, Monday

    Time Temperature Precipitation Wind Pressure Humidity
    00:00 +16°C° 0 mm 3 mps 738 mmHg 85%
    01:00 +16°C° 0 mm 3 mps 738 mmHg 88%
    02:00 +16°C° 0 mm 3 mps 737 mmHg 89%
    03:00 +16°C° 0 mm 2 mps 737 mmHg 90%
    04:00 +16°C° 0 mm 2 mps 737 mmHg 91%
    05:00 +17°C° 0 mm 2 mps 738 mmHg 88%
    06:00 +18°C° 0 mm 2 mps 738 mmHg 86%
    07:00 +19°C° 0 mm 2 mps 738 mmHg 83%
    08:00 +20°C° 0.1 mm 3 mps 738 mmHg 81%
    09:00 +21°C° 0.1 mm 3 mps 739 mmHg 78%
    10:00 +21°C° 0.1 mm 4 mps 739 mmHg 75%
    11:00 +22°C° 0.1 mm 4 mps 739 mmHg 72%
    12:00 +22°C° 0.1 mm 5 mps 739 mmHg 70%
    13:00 +22°C° 0.1 mm 5 mps 740 mmHg 67%
    14:00 +21°C° 0.1 mm 5 mps 740 mmHg 73%
    15:00 +20°C° 0.1 mm 5 mps 741 mmHg 79%
    16:00 +19°C° 0.1 mm 5 mps 741 mmHg 84%
    17:00 +17°C° 0.1 mm 5 mps 742 mmHg 84%
    18:00 +17°C° 0.1 mm 5 mps 743 mmHg 83%
    19:00 +17°C° 0.1 mm 5 mps 744 mmHg 82%
    20:00 +16°C° 0 mm 5 mps 744 mmHg 86%
    21:00 +15°C° 0 mm 4 mps 745 mmHg 89%
    22:00 +14°C° 0 mm 4 mps 746 mmHg 93%
    23:00 +14°C° 0.1 mm 4 mps 746 mmHg 93%

    18 December, Tuesday

    Time Temperature Precipitation Wind Pressure Humidity
    00:00 +14°C° 0.1 mm 4 mps 746 mmHg 93%
    01:00 +14°C° 0.1 mm 4 mps 746 mmHg 94%
    02:00 +13°C° 0.1 mm 4 mps 747 mmHg 94%
    03:00 +13°C° 0.1 mm 4 mps 747 mmHg 95%
    04:00 +13°C° 0.1 mm 4 mps 747 mmHg 96%
    05:00 +13°C° 0.1 mm 3 mps 748 mmHg 95%
    06:00 +13°C° 0.1 mm 3 mps 748 mmHg 94%
    07:00 +13°C° 0.1 mm 3 mps 749 mmHg 93%
    08:00 +14°C° 0.1 mm 3 mps 749 mmHg 85%
    09:00 +16°C° 0.1 mm 3 mps 750 mmHg 78%
    10:00 +17°C° 0.1 mm 3 mps 750 mmHg 70%
    11:00 +17°C° 0 mm 3 mps 750 mmHg 67%
    12:00 +18°C° 0 mm 3 mps 750 mmHg 64%
    13:00 +18°C° 0 mm 3 mps 750 mmHg 61%
    14:00 +19°C° 0 mm 3 mps 750 mmHg 58%
    15:00 +19°C° 0 mm 3 mps 750 mmHg 55%
    16:00 +20°C° 0 mm 3 mps 750 mmHg 52%
    17:00 +18°C° 0 mm 3 mps 750 mmHg 58%
    18:00 +17°C° 0 mm 3 mps 750 mmHg 64%
    19:00 +14°C° 0 mm 3 mps 751 mmHg 70%
    20:00 +12°C° 0 mm 3 mps 751 mmHg 77%
    21:00 +12°C° 0 mm 2 mps 751 mmHg 84%
    22:00 +9°C° 0 mm 2 mps 751 mmHg 91%
    23:00 +9°C° 0 mm 2 mps 751 mmHg 93%
    Show more